{"data":{"norad_id":57965,"intl_designator":"2023-151B","name":"STARLINK-30524","alt_names":[],"object_type":"PAYLOAD","status":"ACTIVE","operator":null,"country":"US","launch_date":"2023-09-30","launch_site_code":"AFETR","launch_vehicle":null,"mission":null,"orbit_class":"UNKNOWN","rcs_meters":null,"size_class":null,"mass_kg":null,"dimensions":null,"purposes":["comms"],"wikipedia_slug":null,"has_3d_model":false,"image_url":null,"decayed_at":null,"tle_current":{"epoch":"2026-05-25T01:25:45.969312Z","epoch_age_seconds":65934,"freshness":"FRESH","line1":"1 57965U 23151B   26145.05955983  .00001298  00000+0  56684-4 0  9998","line2":"2 57965  43.0072 264.9357 0003143 266.8554  93.1938 15.27595960147445","mean_motion":15.2759596,"eccentricity":0.0003143,"inclination_deg":43.0072,"raan_deg":264.9357,"arg_perigee_deg":266.8554,"mean_anomaly_deg":93.1938,"bstar":5.6684e-5,"rev_number":14744,"period_min":94.265763834568,"perigee_km":480.84485070443,"apogee_km":485.15776224388,"semimajor_km":6861.1383064742,"source":"CELESTRAK","updated_at":"2026-05-25T13:38:18.483038Z"}}}